Time,TemperatureF,DewpointF,PressureIn,WindDirection,WindDirectionDegrees,WindSpeedMPH,WindSpeedGustMPH,Humidity,HourlyPrecipIn,Conditions,Clouds,dailyrainin,SoftwareType,DateUTC
2013-03-24 00:05:00,26.8,13.2,30.09,NW,311,0.0,2.7,56,0.00,,---,0.00,VWS V14.01,2013-03-24 05:05:00,
2013-03-24 00:10:00,26.8,12.8,30.09,NW,312,0.0,0.0,55,0.00,,---,0.00,VWS V14.01,2013-03-24 05:10:00,
2013-03-24 00:16:00,26.6,13.0,30.09,NW,310,4.5,4.5,56,0.00,,---,0.00,VWS V14.01,2013-03-24 05:16:00,
2013-03-24 00:22:00,26.6,13.0,30.09,NW,326,4.0,4.0,56,0.00,,---,0.00,VWS V14.01,2013-03-24 05:22:00,
2013-03-24 00:27:00,26.6,13.0,30.09,NW,325,5.8,7.6,56,0.00,,---,0.00,VWS V14.01,2013-03-24 05:27:00,
2013-03-24 00:33:00,26.6,12.6,30.09,NW,322,3.1,4.9,55,0.00,,---,0.00,VWS V14.01,2013-03-24 05:33:00,
2013-03-24 00:38:00,26.6,12.6,30.09,NW,317,3.6,4.9,55,0.00,,---,0.00,VWS V14.01,2013-03-24 05:38:00,
2013-03-24 00:44:00,26.6,12.6,30.09,NNW,327,6.3,6.3,55,0.00,,---,0.00,VWS V14.01,2013-03-24 05:44:00,
2013-03-24 00:50:00,26.6,12.6,30.09,NW,321,4.0,6.3,55,0.00,,---,0.00,VWS V14.01,2013-03-24 05:50:00,
2013-03-24 00:55:00,26.4,12.5,30.09,NNW,329,5.4,5.4,55,0.00,,---,0.00,VWS V14.01,2013-03-24 05:55:00,
2013-03-24 01:01:00,26.4,12.5,30.09,NNW,328,4.9,5.8,55,0.00,,---,0.00,VWS V14.01,2013-03-24 06:01:00,
2013-03-24 01:06:00,26.4,12.0,30.09,NNW,332,2.2,3.1,54,0.00,,---,0.00,VWS V14.01,2013-03-24 06:06:00,
2013-03-24 01:12:00,26.6,12.2,30.09,NNW,335,2.7,4.9,54,0.00,,---,0.00,VWS V14.01,2013-03-24 06:12:00,
2013-03-24 01:18:00,26.4,12.0,30.09,WNW,302,0.0,2.2,54,0.00,,---,0.00,VWS V14.01,2013-03-24 06:18:00,
2013-03-24 01:23:00,26.6,12.2,30.09,WNW,302,4.9,4.9,54,0.00,,---,0.00,VWS V14.01,2013-03-24 06:23:00,
2013-03-24 01:29:00,26.6,12.2,30.09,NW,305,5.8,6.3,54,0.00,,---,0.00,VWS V14.01,2013-03-24 06:29:00,
2013-03-24 01:34:00,26.6,12.2,30.09,WNW,299,7.6,8.3,54,0.00,,---,0.00,VWS V14.01,2013-03-24 06:34:00,
2013-03-24 01:39:00,26.6,12.6,30.09,WNW,301,6.3,7.2,55,0.00,,---,0.00,VWS V14.01,2013-03-24 06:39:00,
2013-03-24 01:44:00,26.4,12.5,30.06,WNW,301,6.3,6.3,55,0.00,,---,0.00,VWS V14.01,2013-03-24 06:44:00,
2013-03-24 01:50:00,26.2,12.3,30.06,WNW,299,7.6,8.7,55,0.00,,---,0.00,VWS V14.01,2013-03-24 06:50:00,
2013-03-24 01:55:00,26.1,12.1,30.06,NW,304,3.6,5.4,55,0.00,,---,0.00,VWS V14.01,2013-03-24 06:55:00,
2013-03-24 02:01:00,26.1,12.5,30.06,NW,314,6.3,8.1,56,0.00,,---,0.00,VWS V14.01,2013-03-24 07:01:00,
2013-03-24 02:07:00,26.1,12.5,30.06,North,353,4.0,6.3,56,0.00,,---,0.00,VWS V14.01,2013-03-24 07:07:00,
2013-03-24 02:12:00,25.9,12.8,30.06,NNW,342,0.0,0.0,57,0.00,,---,0.00,VWS V14.01,2013-03-24 07:12:00,
2013-03-24 02:17:00,25.9,12.4,30.06,North,357,0.0,3.6,56,0.00,,---,0.00,VWS V14.01,2013-03-24 07:17:00,
2013-03-24 02:22:00,25.9,12.4,30.06,NNW,338,4.0,4.0,56,0.00,,---,0.00,VWS V14.01,2013-03-24 07:22:00,
2013-03-24 02:28:00,25.9,12.4,30.06,NNW,338,2.7,2.7,56,0.00,,---,0.00,VWS V14.01,2013-03-24 07:28:00,
2013-03-24 02:33:00,25.7,12.2,30.06,NNW,337,3.6,5.4,56,0.00,,---,0.00,VWS V14.01,2013-03-24 07:33:00,
2013-03-24 02:38:00,25.5,12.0,30.06,NNW,328,2.7,5.8,56,0.00,,---,0.00,VWS V14.01,2013-03-24 07:38:00,
2013-03-24 02:43:00,25.5,11.6,30.06,NW,319,5.8,5.8,55,0.00,,---,0.00,VWS V14.01,2013-03-24 07:43:00,
2013-03-24 02:48:00,25.3,11.9,30.06,NW,317,5.4,6.3,56,0.00,,---,0.00,VWS V14.01,2013-03-24 07:48:00,
2013-03-24 02:54:00,25.2,11.7,30.06,NNW,343,3.1,4.9,56,0.00,,---,0.00,VWS V14.01,2013-03-24 07:54:00,
2013-03-24 02:59:00,25.0,11.5,30.06,NW,323,4.0,5.8,56,0.00,,---,0.00,VWS V14.01,2013-03-24 07:59:00,
2013-03-24 03:04:00,24.6,11.6,30.06,NNW,329,4.0,5.4,57,0.00,,---,0.00,VWS V14.01,2013-03-24 08:04:00,
2013-03-24 03:09:00,24.6,11.6,30.06,WNW,302,3.6,4.0,57,0.00,,---,0.00,VWS V14.01,2013-03-24 08:09:00,
2013-03-24 03:14:00,24.4,11.4,30.06,NW,317,4.0,4.0,57,0.00,,---,0.00,VWS V14.01,2013-03-24 08:14:00,
2013-03-24 03:19:00,24.4,11.4,30.06,NW,319,4.0,5.4,57,0.00,,---,0.00,VWS V14.01,2013-03-24 08:19:00,
2013-03-24 03:25:00,24.4,11.8,30.06,NW,314,0.0,0.0,58,0.00,,---,0.00,VWS V14.01,2013-03-24 08:25:00,
2013-03-24 03:31:00,24.6,12.0,30.06,NW,314,0.0,0.0,58,0.00,,---,0.00,VWS V14.01,2013-03-24 08:31:00,
2013-03-24 03:37:00,24.6,12.0,30.06,NW,314,2.7,3.6,58,0.00,,---,0.00,VWS V14.01,2013-03-24 08:37:00,
2013-03-24 03:43:00,24.6,12.0,30.06,NW,314,0.0,0.0,58,0.00,,---,0.00,VWS V14.01,2013-03-24 08:43:00,
2013-03-24 03:48:00,24.6,12.0,30.06,NW,315,0.0,0.0,58,0.00,,---,0.00,VWS V14.01,2013-03-24 08:48:00,
2013-03-24 03:53:00,24.6,12.0,30.06,NW,314,0.0,0.0,58,0.00,,---,0.00,VWS V14.01,2013-03-24 08:53:00,
2013-03-24 03:59:00,24.8,12.1,30.06,NW,314,0.0,0.0,58,0.00,,---,0.00,VWS V14.01,2013-03-24 08:59:00,
2013-03-24 04:04:00,24.8,12.1,30.06,NW,314,0.0,0.0,58,0.00,,---,0.00,VWS V14.01,2013-03-24 09:04:00,
2013-03-24 04:10:00,24.8,11.7,30.06,NW,314,0.0,0.0,57,0.00,,---,0.00,VWS V14.01,2013-03-24 09:10:00,
2013-03-24 04:15:00,24.6,11.6,30.06,NW,314,0.0,0.0,57,0.00,,---,0.00,VWS V14.01,2013-03-24 09:15:00,
2013-03-24 04:22:00,24.4,11.4,30.06,NW,314,0.0,0.0,57,0.00,,---,0.00,VWS V14.01,2013-03-24 09:22:00,
2013-03-24 04:28:00,24.4,11.4,30.06,NW,315,0.0,0.0,57,0.00,,---,0.00,VWS V14.01,2013-03-24 09:28:00,
2013-03-24 04:34:00,24.3,11.6,30.06,NW,315,0.0,0.0,58,0.00,,---,0.00,VWS V14.01,2013-03-24 09:34:00,
2013-03-24 04:39:00,24.1,11.5,30.06,NW,315,0.0,0.0,58,0.00,,---,0.00,VWS V14.01,2013-03-24 09:39:00,
2013-03-24 04:44:00,24.1,11.5,30.06,NW,314,0.0,0.0,58,0.00,,---,0.00,VWS V14.01,2013-03-24 09:44:00,
2013-03-24 04:49:00,23.9,11.3,30.06,NW,314,0.0,0.0,58,0.00,,---,0.00,VWS V14.01,2013-03-24 09:49:00,
2013-03-24 04:54:00,23.9,11.3,30.06,NW,314,0.0,0.0,58,0.00,,---,0.00,VWS V14.01,2013-03-24 09:54:00,
2013-03-24 05:00:00,24.1,11.8,30.06,NW,314,0.0,0.0,59,0.00,,---,0.00,VWS V14.01,2013-03-24 10:00:00,
2013-03-24 05:06:00,24.3,12.0,30.06,NW,314,0.0,0.0,59,0.00,,---,0.00,VWS V14.01,2013-03-24 10:06:00,
2013-03-24 05:11:00,24.3,12.0,30.06,NW,315,2.2,3.6,59,0.00,,---,0.00,VWS V14.01,2013-03-24 10:11:00,
2013-03-24 05:17:00,24.4,12.2,30.06,NW,315,2.7,3.1,59,0.00,,---,0.00,VWS V14.01,2013-03-24 10:17:00,
2013-03-24 05:22:00,24.4,12.2,30.06,NW,315,0.0,0.0,59,0.00,,---,0.00,VWS V14.01,2013-03-24 10:22:00,
2013-03-24 05:27:00,24.4,12.2,30.06,NW,315,0.0,2.2,59,0.00,,---,0.00,VWS V14.01,2013-03-24 10:27:00,
2013-03-24 05:32:00,24.4,12.6,30.06,NW,315,3.1,3.1,60,0.00,,---,0.00,VWS V14.01,2013-03-24 10:32:00,
2013-03-24 05:37:00,24.4,12.2,30.06,NW,315,0.0,3.6,59,0.00,,---,0.00,VWS V14.01,2013-03-24 10:37:00,
2013-03-24 05:42:00,24.4,12.6,30.06,NW,315,0.0,4.0,60,0.00,,---,0.00,VWS V14.01,2013-03-24 10:42:00,
2013-03-24 05:48:00,24.4,12.6,30.06,NW,315,3.1,3.6,60,0.00,,---,0.00,VWS V14.01,2013-03-24 10:48:00,
2013-03-24 05:53:00,24.4,12.6,30.06,NW,315,0.0,3.6,60,0.00,,---,0.00,VWS V14.01,2013-03-24 10:53:00,
2013-03-24 05:58:00,24.6,12.7,30.06,NW,315,3.6,3.6,60,0.00,,---,0.00,VWS V14.01,2013-03-24 10:58:00,
2013-03-24 06:03:00,24.6,12.7,30.06,NW,315,3.6,3.6,60,0.00,,---,0.00,VWS V14.01,2013-03-24 11:03:00,
2013-03-24 06:09:00,24.4,12.6,30.06,NNW,327,0.0,0.0,60,0.00,,---,0.00,VWS V14.01,2013-03-24 11:09:00,
2013-03-24 06:14:00,24.6,12.7,30.06,NNW,327,0.0,0.0,60,0.00,,---,0.00,VWS V14.01,2013-03-24 11:14:00,
2013-03-24 06:19:00,24.4,12.6,30.06,NNW,331,2.7,4.0,60,0.00,,---,0.00,VWS V14.01,2013-03-24 11:19:00,
2013-03-24 06:24:00,24.4,12.6,30.06,NNW,331,0.0,0.0,60,0.00,,---,0.00,VWS V14.01,2013-03-24 11:24:00,
2013-03-24 06:30:00,24.6,12.7,30.06,NNW,331,0.0,0.0,60,0.00,,---,0.00,VWS V14.01,2013-03-24 11:30:00,
2013-03-24 06:35:00,24.6,12.7,30.06,NNW,331,0.0,0.0,60,0.00,,---,0.00,VWS V14.01,2013-03-24 11:35:00,
2013-03-24 06:42:00,24.6,12.7,30.06,NNW,331,0.0,0.0,60,0.00,,---,0.00,VWS V14.01,2013-03-24 11:42:00,
2013-03-24 06:48:00,24.6,12.7,30.06,NNW,331,0.0,0.0,60,0.00,,---,0.00,VWS V14.01,2013-03-24 11:48:00,
2013-03-24 06:54:00,24.6,12.7,30.06,NNW,331,0.0,0.0,60,0.00,,---,0.00,VWS V14.01,2013-03-24 11:54:00,
2013-03-24 06:59:00,24.6,12.7,30.06,NNW,331,0.0,0.0,60,0.00,,---,0.00,VWS V14.01,2013-03-24 11:59:00,
2013-03-24 07:04:00,24.6,13.1,30.06,NNW,331,0.0,0.0,61,0.00,,---,0.00,VWS V14.01,2013-03-24 12:04:00,
2013-03-24 07:09:00,24.6,13.8,30.06,NNW,331,0.0,0.0,63,0.00,,---,0.00,VWS V14.01,2013-03-24 12:09:00,
2013-03-24 07:14:00,24.4,13.7,30.06,NNW,331,0.0,0.0,63,0.00,,---,0.00,VWS V14.01,2013-03-24 12:14:00,
2013-03-24 07:20:00,24.6,14.6,30.06,NNW,331,0.0,0.0,65,0.00,,---,0.00,VWS V14.01,2013-03-24 12:20:00,
2013-03-24 07:26:00,24.4,14.7,30.06,NNW,331,0.0,0.0,66,0.00,,---,0.00,VWS V14.01,2013-03-24 12:26:00,
2013-03-24 07:31:00,24.3,14.9,30.06,NNW,331,3.1,3.6,67,0.00,,---,0.00,VWS V14.01,2013-03-24 12:31:00,
2013-03-24 07:37:00,24.3,15.2,30.06,NNW,333,4.0,4.0,68,0.00,,---,0.00,VWS V14.01,2013-03-24 12:37:00,
2013-03-24 07:42:00,24.3,15.6,30.06,NNW,332,0.0,0.0,69,0.00,,---,0.00,VWS V14.01,2013-03-24 12:42:00,
2013-03-24 07:48:00,24.4,15.7,30.06,NNW,333,3.1,3.6,69,0.00,,---,0.00,VWS V14.01,2013-03-24 12:48:00,
2013-03-24 07:53:00,24.6,15.9,30.06,NE,34,3.1,4.0,69,0.00,,---,0.00,VWS V14.01,2013-03-24 12:53:00,
2013-03-24 07:59:00,25.0,15.9,30.06,NE,35,3.1,3.6,68,0.00,,---,0.00,VWS V14.01,2013-03-24 12:59:00,
2013-03-24 08:05:00,25.3,16.3,30.06,NE,34,3.1,3.6,68,0.00,,---,0.00,VWS V14.01,2013-03-24 13:05:00,
2013-03-24 08:11:00,25.9,16.5,30.06,NE,44,4.9,5.4,67,0.00,,---,0.00,VWS V14.01,2013-03-24 13:11:00,
2013-03-24 08:16:00,26.4,16.6,30.06,NNE,29,3.1,4.0,66,0.00,,---,0.00,VWS V14.01,2013-03-24 13:16:00,
2013-03-24 08:21:00,27.0,16.8,30.06,NNE,27,0.0,3.1,65,0.00,,---,0.00,VWS V14.01,2013-03-24 13:21:00,
2013-03-24 08:27:00,27.9,17.6,30.06,NNE,25,2.7,3.1,65,0.00,,---,0.00,VWS V14.01,2013-03-24 13:27:00,
2013-03-24 08:32:00,28.2,18.0,30.06,NNE,26,0.0,0.0,65,0.00,,---,0.00,VWS V14.01,2013-03-24 13:32:00,
2013-03-24 08:37:00,28.6,16.9,30.06,NNE,26,2.7,2.7,61,0.00,,---,0.00,VWS V14.01,2013-03-24 13:37:00,
2013-03-24 08:43:00,28.0,16.7,30.06,NE,46,5.4,5.8,62,0.00,,---,0.00,VWS V14.01,2013-03-24 13:43:00,
2013-03-24 08:48:00,27.5,18.3,30.06,ENE,60,5.8,5.8,68,0.00,,---,0.00,VWS V14.01,2013-03-24 13:48:00,
2013-03-24 08:53:00,27.5,19.4,30.06,ENE,61,6.3,6.3,71,0.00,,---,0.00,VWS V14.01,2013-03-24 13:53:00,
2013-03-24 08:58:00,27.3,19.8,30.06,ENE,58,6.3,8.3,73,0.00,,---,0.00,VWS V14.01,2013-03-24 13:58:00,
2013-03-24 09:03:00,27.7,20.2,30.06,NE,52,4.0,6.3,73,0.00,,---,0.00,VWS V14.01,2013-03-24 14:03:00,
2013-03-24 09:09:00,27.9,20.0,30.06,ENE,57,4.9,5.8,72,0.00,,---,0.00,VWS V14.01,2013-03-24 14:09:00,
2013-03-24 09:15:00,27.9,20.0,30.06,ENE,62,6.3,7.6,72,0.00,,---,0.00,VWS V14.01,2013-03-24 14:15:00,
2013-03-24 09:21:00,27.7,19.9,30.06,NE,54,6.3,8.7,72,0.00,,---,0.00,VWS V14.01,2013-03-24 14:21:00,
2013-03-24 09:26:00,27.7,19.5,30.06,ENE,60,6.7,7.6,71,0.00,,---,0.00,VWS V14.01,2013-03-24 14:26:00,
2013-03-24 09:31:00,27.5,18.7,30.06,NE,43,8.7,8.7,69,0.00,,---,0.00,VWS V14.01,2013-03-24 14:31:00,
2013-03-24 09:37:00,28.0,19.5,30.06,NE,49,8.3,8.7,70,0.00,,---,0.00,VWS V14.01,2013-03-24 14:37:00,
2013-03-24 09:43:00,27.9,18.3,30.06,NE,53,8.3,8.7,67,0.00,,---,0.00,VWS V14.01,2013-03-24 14:43:00,
2013-03-24 09:48:00,27.9,18.3,30.06,ENE,59,9.2,9.2,67,0.00,,---,0.00,VWS V14.01,2013-03-24 14:48:00,
2013-03-24 09:54:00,27.5,17.3,30.06,NE,51,11.0,11.0,65,0.00,,---,0.00,VWS V14.01,2013-03-24 14:54:00,
2013-03-24 10:00:00,27.9,18.3,30.06,NE,54,10.1,10.1,67,0.00,,---,0.00,VWS V14.01,2013-03-24 15:00:00,
2013-03-24 10:05:00,28.2,19.0,30.06,ENE,60,7.2,8.1,68,0.00,,---,0.00,VWS V14.01,2013-03-24 15:05:00,
2013-03-24 10:10:00,29.5,19.9,30.06,NE,41,4.0,6.3,67,0.00,,---,0.00,VWS V14.01,2013-03-24 15:10:00,
2013-03-24 10:15:00,29.3,17.9,30.06,NE,47,8.7,11.0,62,0.00,,---,0.00,VWS V14.01,2013-03-24 15:15:00,
2013-03-24 10:21:00,28.2,16.9,30.06,NE,51,13.2,13.2,62,0.00,,---,0.00,VWS V14.01,2013-03-24 15:21:00,
2013-03-24 10:26:00,27.9,17.3,30.06,ENE,59,11.9,12.3,64,0.00,,---,0.00,VWS V14.01,2013-03-24 15:26:00,
2013-03-24 10:31:00,28.6,18.0,30.06,NE,55,8.7,10.5,64,0.00,,---,0.00,VWS V14.01,2013-03-24 15:31:00,
2013-03-24 10:36:00,28.4,16.7,30.06,ENE,61,8.1,9.2,61,0.00,,---,0.00,VWS V14.01,2013-03-24 15:36:00,
2013-03-24 10:43:00,28.4,15.9,30.06,NE,46,8.1,14.1,59,0.00,,---,0.00,VWS V14.01,2013-03-24 15:43:00,
2013-03-24 10:49:00,28.6,15.7,30.06,ENE,63,11.0,11.9,58,0.00,,---,0.00,VWS V14.01,2013-03-24 15:49:00,
2013-03-24 10:54:00,28.8,16.2,30.06,ENE,60,6.3,10.5,59,0.00,,---,0.00,VWS V14.01,2013-03-24 15:54:00,
2013-03-24 11:00:00,29.3,16.0,30.06,ENE,61,8.7,13.2,57,0.00,,---,0.00,VWS V14.01,2013-03-24 16:00:00,
2013-03-24 11:06:00,28.8,16.2,30.06,ENE,63,8.1,11.0,59,0.00,,---,0.00,VWS V14.01,2013-03-24 16:06:00,
2013-03-24 11:11:00,30.7,17.3,30.06,NNE,22,6.3,10.5,57,0.00,,---,0.00,VWS V14.01,2013-03-24 16:11:00,
2013-03-24 11:16:00,32.2,17.8,30.06,NNE,28,7.6,9.2,55,0.00,,---,0.00,VWS V14.01,2013-03-24 16:16:00,
2013-03-24 11:22:00,31.1,16.0,30.06,ENE,71,7.6,10.5,53,0.00,,---,0.00,VWS V14.01,2013-03-24 16:22:00,
2013-03-24 11:28:00,30.2,16.0,30.03,ENE,64,9.6,9.6,55,0.00,,---,0.00,VWS V14.01,2013-03-24 16:28:00,
2013-03-24 11:34:00,32.7,19.2,30.03,NE,37,6.3,6.3,57,0.00,,---,0.00,VWS V14.01,2013-03-24 16:34:00,
2013-03-24 11:39:00,32.9,16.8,30.03,North,357,5.8,8.7,51,0.00,,---,0.00,VWS V14.01,2013-03-24 16:39:00,
2013-03-24 11:44:00,33.8,17.1,30.03,ENE,58,5.4,6.3,50,0.00,,---,0.00,VWS V14.01,2013-03-24 16:44:00,
2013-03-24 11:49:00,32.4,15.8,30.03,NE,51,10.1,13.6,50,0.00,,---,0.00,VWS V14.01,2013-03-24 16:49:00,
2013-03-24 11:55:00,32.5,16.4,30.03,NNE,31,7.6,10.5,51,0.00,,---,0.00,VWS V14.01,2013-03-24 16:55:00,
2013-03-24 12:00:00,35.6,16.9,30.03,NNE,25,7.6,8.7,46,0.00,,---,0.00,VWS V14.01,2013-03-24 17:00:00,
2013-03-24 12:06:00,35.4,17.2,30.03,NNE,27,7.6,8.7,47,0.00,,---,0.00,VWS V14.01,2013-03-24 17:06:00,
2013-03-24 12:11:00,33.3,15.7,30.03,NE,41,10.1,12.8,48,0.00,,---,0.00,VWS V14.01,2013-03-24 17:11:00,
2013-03-24 12:17:00,35.8,17.0,30.03,NE,51,7.6,8.7,46,0.00,,---,0.00,VWS V14.01,2013-03-24 17:17:00,
2013-03-24 12:22:00,34.0,14.9,30.03,ENE,63,7.6,7.6,45,0.00,,---,0.00,VWS V14.01,2013-03-24 17:22:00,
2013-03-24 12:28:00,34.5,16.9,30.03,NE,37,11.0,11.0,48,0.00,,---,0.00,VWS V14.01,2013-03-24 17:28:00,
2013-03-24 12:34:00,35.4,16.2,30.03,NE,41,11.0,11.0,45,0.00,,---,0.00,VWS V14.01,2013-03-24 17:34:00,
2013-03-24 12:39:00,35.1,15.9,30.03,NNE,30,10.5,11.0,45,0.00,,---,0.00,VWS V14.01,2013-03-24 17:39:00,
2013-03-24 12:45:00,36.5,16.7,30.03,NE,46,6.3,10.1,44,0.00,,---,0.00,VWS V14.01,2013-03-24 17:45:00,
2013-03-24 12:51:00,37.9,16.9,30.03,NNE,19,7.6,10.1,42,0.00,,---,0.00,VWS V14.01,2013-03-24 17:51:00,
2013-03-24 12:57:00,38.3,17.2,30.03,NE,49,3.6,6.3,42,0.00,,---,0.00,VWS V14.01,2013-03-24 17:57:00,
2013-03-24 13:02:00,40.8,18.4,30.03,NW,315,8.3,8.3,40,0.00,,---,0.00,VWS V14.01,2013-03-24 18:02:00,
2013-03-24 13:07:00,41.5,18.4,30.03,NNE,33,3.1,7.6,39,0.00,,---,0.00,VWS V14.01,2013-03-24 18:07:00,
2013-03-24 13:13:00,38.8,17.2,30.03,NE,53,8.7,8.7,41,0.00,,---,0.00,VWS V14.01,2013-03-24 18:13:00,
2013-03-24 13:19:00,39.6,17.2,30.03,NE,35,8.1,8.1,40,0.00,,---,0.00,VWS V14.01,2013-03-24 18:19:00,
2013-03-24 13:24:00,40.6,18.8,30.03,North,10,3.6,5.4,41,0.00,,---,0.00,VWS V14.01,2013-03-24 18:24:00,
2013-03-24 13:29:00,40.3,17.9,30.03,NNE,20,6.3,7.6,40,0.00,,---,0.00,VWS V14.01,2013-03-24 18:29:00,
2013-03-24 13:34:00,37.4,15.9,30.03,NNE,27,8.3,8.7,41,0.00,,---,0.00,VWS V14.01,2013-03-24 18:34:00,
2013-03-24 13:40:00,39.2,16.9,30.03,North,353,5.4,5.8,40,0.00,,---,0.00,VWS V14.01,2013-03-24 18:40:00,
2013-03-24 13:45:00,37.9,16.4,30.03,NNE,31,8.3,10.5,41,0.00,,---,0.00,VWS V14.01,2013-03-24 18:45:00,
2013-03-24 13:50:00,38.7,16.4,30.03,North,6,8.7,10.1,40,0.00,,---,0.00,VWS V14.01,2013-03-24 18:50:00,
2013-03-24 13:56:00,39.4,17.1,30.03,NE,44,5.4,8.3,40,0.00,,---,0.00,VWS V14.01,2013-03-24 18:56:00,
2013-03-24 14:03:00,39.9,17.6,30.03,North,349,4.9,4.9,40,0.00,,---,0.00,VWS V14.01,2013-03-24 19:03:00,
2013-03-24 14:09:00,40.5,18.1,30.03,North,1,4.9,5.8,40,0.00,,---,0.00,VWS V14.01,2013-03-24 19:09:00,
2013-03-24 14:14:00,40.6,18.2,30.03,NNW,345,7.6,7.6,40,0.00,,---,0.00,VWS V14.01,2013-03-24 19:14:00,
2013-03-24 14:20:00,42.1,18.9,30.03,North,350,4.0,4.0,39,0.00,,---,0.00,VWS V14.01,2013-03-24 19:20:00,
2013-03-24 14:25:00,39.9,17.0,30.03,NNE,23,6.3,6.7,39,0.00,,---,0.00,VWS V14.01,2013-03-24 19:25:00,
2013-03-24 14:30:00,39.7,16.8,30.03,NNE,17,8.1,10.1,39,0.00,,---,0.00,VWS V14.01,2013-03-24 19:30:00,
2013-03-24 14:35:00,38.5,15.7,30.03,NNE,12,8.3,8.3,39,0.00,,---,0.00,VWS V14.01,2013-03-24 19:35:00,
2013-03-24 14:40:00,39.0,16.8,30.03,NE,35,10.5,10.5,40,0.00,,---,0.00,VWS V14.01,2013-03-24 19:40:00,
2013-03-24 14:46:00,37.6,15.5,30.03,North,357,5.4,10.5,40,0.00,,---,0.00,VWS V14.01,2013-03-24 19:46:00,
2013-03-24 14:51:00,38.7,16.4,30.03,NNE,22,3.6,7.6,40,0.00,,---,0.00,VWS V14.01,2013-03-24 19:51:00,
2013-03-24 14:57:00,39.2,16.3,30.03,NNE,24,5.8,8.3,39,0.00,,---,0.00,VWS V14.01,2013-03-24 19:57:00,
2013-03-24 15:02:00,39.0,16.2,30.03,NE,41,9.2,10.5,39,0.00,,---,0.00,VWS V14.01,2013-03-24 20:02:00,
2013-03-24 15:08:00,37.0,15.0,30.03,NE,38,8.7,12.8,40,0.00,,---,0.00,VWS V14.01,2013-03-24 20:08:00,
2013-03-24 15:13:00,37.0,15.0,30.03,North,0,8.3,11.0,40,0.00,,---,0.00,VWS V14.01,2013-03-24 20:13:00,
2013-03-24 15:19:00,37.6,15.5,30.03,NNW,339,6.3,8.3,40,0.00,,---,0.00,VWS V14.01,2013-03-24 20:19:00,
2013-03-24 15:25:00,37.4,15.3,30.03,North,0,8.1,8.1,40,0.00,,---,0.00,VWS V14.01,2013-03-24 20:25:00,
2013-03-24 15:30:00,37.4,15.3,30.00,NNW,345,5.8,8.7,40,0.00,,---,0.00,VWS V14.01,2013-03-24 20:30:00,
2013-03-24 15:36:00,38.5,16.3,30.00,NNE,31,4.5,10.1,40,0.00,,---,0.00,VWS V14.01,2013-03-24 20:36:00,
2013-03-24 15:42:00,38.5,16.3,30.00,North,357,7.2,7.2,40,0.00,,---,0.00,VWS V14.01,2013-03-24 20:42:00,
2013-03-24 15:47:00,38.7,16.4,30.00,NE,36,5.8,9.6,40,0.00,,---,0.00,VWS V14.01,2013-03-24 20:47:00,
2013-03-24 15:52:00,38.7,16.4,30.00,NNW,341,8.3,8.3,40,0.00,,---,0.00,VWS V14.01,2013-03-24 20:52:00,
2013-03-24 15:58:00,38.7,16.4,30.00,NE,49,12.3,12.3,40,0.00,,---,0.00,VWS V14.01,2013-03-24 20:58:00,
2013-03-24 16:04:00,37.2,15.7,30.00,NE,39,8.7,10.5,41,0.00,,---,0.00,VWS V14.01,2013-03-24 21:04:00,
2013-03-24 16:09:00,38.1,16.5,30.00,NNW,334,5.8,8.3,41,0.00,,---,0.00,VWS V14.01,2013-03-24 21:09:00,
2013-03-24 16:15:00,37.6,15.5,30.00,NNE,16,11.9,11.9,40,0.00,,---,0.00,VWS V14.01,2013-03-24 21:15:00,
2013-03-24 16:20:00,37.4,15.3,30.00,NNE,23,7.6,8.7,40,0.00,,---,0.00,VWS V14.01,2013-03-24 21:20:00,
2013-03-24 16:26:00,37.2,15.1,30.00,North,6,8.7,10.1,40,0.00,,---,0.00,VWS V14.01,2013-03-24 21:26:00,
2013-03-24 16:32:00,35.6,14.2,29.97,NNE,13,7.2,11.4,41,0.00,,---,0.00,VWS V14.01,2013-03-24 21:32:00,
2013-03-24 16:37:00,35.6,14.8,29.97,NNE,15,6.3,12.8,42,0.00,,---,0.00,VWS V14.01,2013-03-24 21:37:00,
2013-03-24 16:43:00,36.1,15.3,29.97,North,353,10.1,10.1,42,0.00,,---,0.00,VWS V14.01,2013-03-24 21:43:00,
2013-03-24 16:48:00,37.2,16.8,30.00,North,10,3.6,4.9,43,0.00,,---,0.00,VWS V14.01,2013-03-24 21:48:00,
2013-03-24 16:54:00,37.8,16.2,30.00,NNE,23,8.1,10.5,41,0.00,,---,0.00,VWS V14.01,2013-03-24 21:54:00,
2013-03-24 17:00:00,37.9,16.4,30.00,NNW,339,5.4,5.4,41,0.00,,---,0.00,VWS V14.01,2013-03-24 22:00:00,
2013-03-24 17:05:00,37.9,16.4,30.00,NW,324,6.3,8.3,41,0.00,,---,0.00,VWS V14.01,2013-03-24 22:05:00,
2013-03-24 17:10:00,37.0,16.1,30.00,North,353,2.7,5.8,42,0.00,,---,0.00,VWS V14.01,2013-03-24 22:10:00,
2013-03-24 17:17:00,36.9,15.9,30.00,North,357,7.6,10.5,42,0.00,,---,0.00,VWS V14.01,2013-03-24 22:17:00,
2013-03-24 17:22:00,36.1,15.3,30.00,North,2,7.6,10.1,42,0.00,,---,0.00,VWS V14.01,2013-03-24 22:22:00,
2013-03-24 17:27:00,36.1,15.8,30.00,NNW,342,6.3,7.6,43,0.00,,---,0.00,VWS V14.01,2013-03-24 22:27:00,
2013-03-24 17:32:00,35.6,15.3,30.00,North,357,5.8,9.2,43,0.00,,---,0.00,VWS V14.01,2013-03-24 22:32:00,
2013-03-24 17:38:00,35.4,15.7,30.00,NNW,341,8.3,8.3,44,0.00,,---,0.00,VWS V14.01,2013-03-24 22:38:00,
2013-03-24 17:43:00,34.9,15.2,30.00,North,0,8.1,8.1,44,0.00,,---,0.00,VWS V14.01,2013-03-24 22:43:00,
2013-03-24 17:49:00,34.5,15.4,30.00,NNW,329,5.8,8.3,45,0.00,,---,0.00,VWS V14.01,2013-03-24 22:49:00,
2013-03-24 17:54:00,34.3,15.2,30.00,NNW,345,6.3,8.1,45,0.00,,---,0.00,VWS V14.01,2013-03-24 22:54:00,
2013-03-24 18:00:00,34.2,15.1,30.00,NNW,338,6.3,8.7,45,0.00,,---,0.00,VWS V14.01,2013-03-24 23:00:00,
2013-03-24 18:06:00,34.2,15.1,30.00,North,357,4.0,8.7,45,0.00,,---,0.00,VWS V14.01,2013-03-24 23:06:00,
2013-03-24 18:11:00,34.5,15.9,30.00,NNW,331,5.8,8.3,46,0.00,,---,0.00,VWS V14.01,2013-03-24 23:11:00,
2013-03-24 18:17:00,34.7,16.0,30.00,NNW,344,5.8,6.3,46,0.00,,---,0.00,VWS V14.01,2013-03-24 23:17:00,
2013-03-24 18:22:00,34.5,15.9,30.00,NNW,343,3.1,3.1,46,0.00,,---,0.00,VWS V14.01,2013-03-24 23:22:00,
2013-03-24 18:27:00,34.3,15.7,30.00,NE,43,3.1,5.8,46,0.00,,---,0.00,VWS V14.01,2013-03-24 23:27:00,
2013-03-24 18:32:00,34.0,15.9,30.03,NNW,335,4.0,4.0,47,0.00,,---,0.00,VWS V14.01,2013-03-24 23:32:00,
2013-03-24 18:37:00,33.8,15.7,30.03,NNW,344,3.1,5.8,47,0.00,,---,0.00,VWS V14.01,2013-03-24 23:37:00,
2013-03-24 18:42:00,33.6,16.0,30.03,NNW,340,5.4,5.4,48,0.00,,---,0.00,VWS V14.01,2013-03-24 23:42:00,
2013-03-24 18:48:00,33.4,15.9,30.00,NNW,342,4.0,6.3,48,0.00,,---,0.00,VWS V14.01,2013-03-24 23:48:00,
2013-03-24 18:53:00,33.4,15.9,30.00,NNW,327,3.1,4.0,48,0.00,,---,0.00,VWS V14.01,2013-03-24 23:53:00,
2013-03-24 18:58:00,33.3,15.2,30.00,North,353,2.7,5.8,47,0.00,,---,0.00,VWS V14.01,2013-03-24 23:58:00,
2013-03-24 19:03:00,33.3,15.2,30.00,North,2,7.2,7.6,47,0.00,,---,0.00,VWS V14.01,2013-03-25 00:03:00,
2013-03-24 19:09:00,32.9,14.9,30.00,NNW,346,3.6,4.0,47,0.00,,---,0.00,VWS V14.01,2013-03-25 00:09:00,
2013-03-24 19:14:00,32.7,14.7,30.03,NNE,14,4.0,4.9,47,0.00,,---,0.00,VWS V14.01,2013-03-25 00:14:00,
2013-03-24 19:20:00,32.5,15.0,30.03,North,4,3.1,7.6,48,0.00,,---,0.00,VWS V14.01,2013-03-25 00:20:00,
2013-03-24 19:25:00,32.4,15.8,30.03,NW,325,5.4,6.3,50,0.00,,---,0.00,VWS V14.01,2013-03-25 00:25:00,
2013-03-24 19:31:00,32.2,16.1,30.03,NNW,331,5.8,9.6,51,0.00,,---,0.00,VWS V14.01,2013-03-25 00:31:00,
2013-03-24 19:37:00,31.8,15.8,30.03,NNW,333,5.8,8.1,51,0.00,,---,0.00,VWS V14.01,2013-03-25 00:37:00,
2013-03-24 19:42:00,31.6,16.0,30.03,North,6,5.8,8.1,52,0.00,,---,0.00,VWS V14.01,2013-03-25 00:42:00,
2013-03-24 19:48:00,31.6,16.0,30.03,North,353,3.1,5.8,52,0.00,,---,0.00,VWS V14.01,2013-03-25 00:48:00,
2013-03-24 19:53:00,31.5,15.9,30.03,NNW,334,8.1,8.7,52,0.00,,---,0.00,VWS V14.01,2013-03-25 00:53:00,
2013-03-24 19:59:00,31.5,16.3,30.03,North,4,10.5,10.5,53,0.00,,---,0.00,VWS V14.01,2013-03-25 00:59:00,
2013-03-24 20:05:00,31.3,16.6,30.03,North,0,4.9,8.1,54,0.00,,---,0.00,VWS V14.01,2013-03-25 01:05:00,
2013-03-24 20:10:00,31.3,16.1,30.03,North,349,2.7,7.6,53,0.00,,---,0.00,VWS V14.01,2013-03-25 01:10:00,
2013-03-24 20:16:00,31.3,16.6,30.03,North,7,6.3,7.6,54,0.00,,---,0.00,VWS V14.01,2013-03-25 01:16:00,
2013-03-24 20:21:00,31.1,16.8,30.03,North,353,5.8,7.6,55,0.00,,---,0.00,VWS V14.01,2013-03-25 01:21:00,
2013-03-24 20:27:00,31.1,17.2,30.03,NNW,337,5.4,8.7,56,0.00,,---,0.00,VWS V14.01,2013-03-25 01:27:00,
2013-03-24 20:33:00,30.7,17.3,30.03,North,350,2.7,4.9,57,0.00,,---,0.00,VWS V14.01,2013-03-25 01:33:00,
2013-03-24 20:38:00,30.7,17.3,30.03,North,357,8.3,8.3,57,0.00,,---,0.00,VWS V14.01,2013-03-25 01:38:00,
2013-03-24 20:44:00,30.7,17.7,30.03,NNW,340,5.8,6.3,58,0.00,,---,0.00,VWS V14.01,2013-03-25 01:44:00,
2013-03-24 20:49:00,30.7,18.1,30.03,North,11,2.2,5.8,59,0.00,,---,0.00,VWS V14.01,2013-03-25 01:49:00,
2013-03-24 20:54:00,30.7,18.5,30.03,North,0,8.1,8.1,60,0.00,,---,0.00,VWS V14.01,2013-03-25 01:54:00,
2013-03-24 20:59:00,30.6,18.3,30.03,NNE,20,4.9,7.2,60,0.00,,---,0.00,VWS V14.01,2013-03-25 01:59:00,
2013-03-24 21:04:00,30.6,18.7,30.03,North,353,4.9,5.4,61,0.00,,---,0.00,VWS V14.01,2013-03-25 02:04:00,
2013-03-24 21:10:00,30.6,19.1,30.03,NNE,12,5.8,5.8,62,0.00,,---,0.00,VWS V14.01,2013-03-25 02:10:00,
2013-03-24 21:16:00,30.6,19.1,30.03,North,4,4.0,6.3,62,0.00,,---,0.00,VWS V14.01,2013-03-25 02:16:00,
2013-03-24 21:21:00,30.4,18.9,30.03,NNE,23,5.4,5.8,62,0.00,,---,0.00,VWS V14.01,2013-03-25 02:21:00,
2013-03-24 21:27:00,30.2,19.1,30.03,North,4,3.6,5.8,63,0.00,,---,0.00,VWS V14.01,2013-03-25 02:27:00,
2013-03-24 21:32:00,30.2,19.1,30.03,North,7,4.0,4.0,63,0.00,,---,0.00,VWS V14.01,2013-03-25 02:32:00,
2013-03-24 21:37:00,30.2,19.5,30.03,North,357,3.6,5.4,64,0.00,,---,0.00,VWS V14.01,2013-03-25 02:37:00,
2013-03-24 21:43:00,30.0,19.3,30.03,NNE,21,5.8,5.8,64,0.00,,---,0.00,VWS V14.01,2013-03-25 02:43:00,
2013-03-24 21:48:00,30.0,19.3,30.06,North,2,6.3,6.7,64,0.00,,---,0.00,VWS V14.01,2013-03-25 02:48:00,
2013-03-24 21:53:00,30.0,19.0,30.06,North,357,4.9,5.8,63,0.00,,---,0.00,VWS V14.01,2013-03-25 02:53:00,
2013-03-24 21:59:00,30.2,19.1,30.06,North,357,3.6,5.4,63,0.00,,---,0.00,VWS V14.01,2013-03-25 02:59:00,
2013-03-24 22:05:00,30.0,18.6,30.06,NE,34,3.1,4.9,62,0.00,,---,0.00,VWS V14.01,2013-03-25 03:05:00,
2013-03-24 22:10:00,30.0,18.6,30.06,North,3,2.7,8.1,62,0.00,,---,0.00,VWS V14.01,2013-03-25 03:10:00,
2013-03-24 22:16:00,29.8,18.4,30.06,NE,35,3.6,4.0,62,0.00,,---,0.00,VWS V14.01,2013-03-25 03:16:00,
2013-03-24 22:22:00,29.8,18.8,30.06,North,357,4.0,4.0,63,0.00,,---,0.00,VWS V14.01,2013-03-25 03:22:00,
2013-03-24 22:27:00,29.8,18.8,30.06,NNE,19,4.0,5.4,63,0.00,,---,0.00,VWS V14.01,2013-03-25 03:27:00,
2013-03-24 22:33:00,29.8,18.4,30.06,North,5,5.8,5.8,62,0.00,,---,0.00,VWS V14.01,2013-03-25 03:33:00,
2013-03-24 22:38:00,29.8,18.4,30.06,North,0,4.9,5.4,62,0.00,,---,0.00,VWS V14.01,2013-03-25 03:38:00,
2013-03-24 22:44:00,29.7,18.2,30.06,NNE,19,6.3,6.3,62,0.00,,---,0.00,VWS V14.01,2013-03-25 03:44:00,
2013-03-24 22:49:00,29.7,17.9,30.06,North,353,4.0,8.1,61,0.00,,---,0.00,VWS V14.01,2013-03-25 03:49:00,
2013-03-24 22:55:00,29.5,17.3,30.06,NNE,29,3.1,5.4,60,0.00,,---,0.00,VWS V14.01,2013-03-25 03:55:00,
2013-03-24 23:00:00,29.5,17.7,30.06,North,357,2.2,5.8,61,0.00,,---,0.00,VWS V14.01,2013-03-25 04:00:00,
2013-03-24 23:01:00,29.5,17.7,30.06,NNE,14,2.7,3.6,61,0.00,,---,0.00,VWS V14.01,2013-03-25 04:01:00,
2013-03-24 23:03:00,29.5,17.7,30.06,North,2,4.5,4.5,61,0.00,,---,0.00,VWS V14.01,2013-03-25 04:03:00,
2013-03-24 23:04:00,29.5,17.7,30.06,North,2,2.7,4.5,61,0.00,,---,0.00,VWS V14.01,2013-03-25 04:04:00,
2013-03-24 23:09:00,29.5,17.7,30.06,North,5,3.6,4.0,61,0.00,,---,0.00,VWS V14.01,2013-03-25 04:09:00,
2013-03-24 23:14:00,29.5,17.7,30.06,NNE,22,0.0,6.3,61,0.00,,---,0.00,VWS V14.01,2013-03-25 04:14:00,
2013-03-24 23:19:00,29.3,17.5,30.06,NNE,19,5.8,6.3,61,0.00,,---,0.00,VWS V14.01,2013-03-25 04:19:00,
2013-03-24 23:24:00,29.3,17.5,30.06,NE,39,4.5,6.3,61,0.00,,---,0.00,VWS V14.01,2013-03-25 04:24:00,
2013-03-24 23:30:00,29.1,17.4,30.06,NNE,20,3.6,6.3,61,0.00,,---,0.00,VWS V14.01,2013-03-25 04:30:00,
2013-03-24 23:36:00,29.1,17.7,30.06,NNE,20,3.1,5.8,62,0.00,,---,0.00,VWS V14.01,2013-03-25 04:36:00,
2013-03-24 23:41:00,29.1,17.4,30.06,NNE,28,4.0,8.3,61,0.00,,---,0.00,VWS V14.01,2013-03-25 04:41:00,
2013-03-24 23:47:00,28.9,17.2,30.06,NE,39,6.3,8.1,61,0.00,,---,0.00,VWS V14.01,2013-03-25 04:47:00,
2013-03-24 23:52:00,28.9,16.8,30.06,NNE,23,3.1,5.4,60,0.00,,---,0.00,VWS V14.01,2013-03-25 04:52:00,
2013-03-24 23:57:00,28.9,16.4,30.06,NE,48,5.4,8.1,59,0.00,,---,0.00,VWS V14.01,2013-03-25 04:57:00,